Williamsport, PA

4:51 AM EDT on March 23, 2017 (GMT -0400)
Williamsport Rgnl

Weather History for KIPT - October, 2013

Change the Weather History Date:

Sunday, October 20, 2013

  Actual Average Record
Temperature  
Mean Temperature 50 °F 50 °F  
Max Temperature 60 °F 61 °F 80 °F (1969)
Min Temperature 39 °F 40 °F 20 °F (1972)
Degree Days  
Heating Degree Days 15 15  
Month to date heating degree days 115 232  
Since 1 July heating degree days 241 360  
Cooling Degree Days 0 0  
Month to date cooling degree days 30 1  
Year to date cooling degree days 863 698  
Growing Degree Days 1 (Base 50)    
Moisture  
Dew Point 37 °F    
Average Humidity 66    
Maximum Humidity 92    
Minimum Humidity 39    
Precipitation  
Precipitation T in 0.10 in 1.70 in (1913)
Month to date precipitation 2.75 2.27  
Year to date precipitation 25.97 33.46  
Snow  
Snow 0.00 in 0.00 in 0.50 in (1940)
Month to date snowfall 0.0 0.0  
Since 1 July snowfall 0.0 0.0  
Since 1 September snowfall 0.0 0.0  
Snow Depth 0.00 in    
Sea Level Pressure  
Sea Level Pressure 29.96 in    
Wind  
Wind Speed 6 mph (WSW)    
Max Wind Speed 17 mph    
Max Gust Speed 22 mph    
Visibility 10 miles    
Events Rain    
T = Trace of Precipitation, MM = Missing Value Source: NWS Daily Summary

Daily Weather History Graph

Daily Weather History Graph

Search for Another Location

Airport or City:

Trip Planner

Search our weather history database for the weather conditions in past years. The results will help you decide how hot, cold, wet, or windy it might be!

Date:

Astronomy

Oct. 20, 2013 Rise Set
Actual Time 7:25 AM EDT 6:18 PM EDT
Civil Twilight 6:57 AM EDT 6:46 PM EDT
Nautical Twilight 6:25 AM EDT 7:19 PM EDT
Astronomical Twilight 5:53 AM EDT 7:50 PM EDT
Moon 7:24 PM EDT (10/20) 9:01 AM EDT (10/20)
Length of Visible Light 11h 49m
Length of Day
10h 53m
Full, 97% of the Moon is Illuminated
Oct 20
Full
Oct 26
Last Quarter
Nov 3
New
Nov 10
First Quarter
Nov 17
Full

Hourly Weather History & Observations

Time (EDT) Temp. Windchill Dew Point Humidity Pressure Visibility Wind Dir Wind Speed Gust Speed Precip Events Conditions
12:54 AM 48.9 °F - 39.0 °F 69% 29.84 in 10.0 mi West 15.0 mph - N/A   Overcast
1:54 AM 48.0 °F - 39.0 °F 71% 29.86 in 10.0 mi West 11.5 mph - 0.00 in Rain Light Rain
2:54 AM 48.0 °F - 37.9 °F 68% 29.87 in 10.0 mi West 9.2 mph - 0.00 in   Mostly Cloudy
3:54 AM 48.0 °F - 37.9 °F 68% 29.88 in 10.0 mi West 4.6 mph - N/A   Overcast
4:54 AM 46.0 °F 41.9 °F 37.0 °F 71% 29.90 in 10.0 mi West 8.1 mph - N/A   Scattered Clouds
5:54 AM 46.0 °F 41.9 °F 36.0 °F 68% 29.91 in 10.0 mi West 8.1 mph - N/A   Scattered Clouds
6:54 AM 44.1 °F - 36.0 °F 73% 29.94 in 10.0 mi Calm Calm - N/A   Mostly Cloudy
7:54 AM 44.1 °F 42.5 °F 36.0 °F 73% 29.95 in 10.0 mi NW 3.5 mph - N/A   Clear
8:54 AM 46.9 °F - 36.0 °F 66% 29.98 in 10.0 mi West 6.9 mph - N/A   Clear
9:54 AM 48.9 °F - 36.0 °F 61% 29.99 in 10.0 mi West 12.7 mph 21.9 mph N/A   Clear
10:54 AM 51.1 °F - 37.9 °F 61% 30.00 in 10.0 mi West 12.7 mph - N/A   Partly Cloudy
11:54 AM 54.0 °F - 37.0 °F 53% 30.00 in 10.0 mi West 12.7 mph - N/A   Scattered Clouds
12:54 PM 55.9 °F - 37.0 °F 49% 30.00 in 10.0 mi WSW 11.5 mph 17.3 mph N/A   Scattered Clouds
1:54 PM 57.9 °F - 36.0 °F 44% 29.99 in 10.0 mi WSW 12.7 mph 21.9 mph N/A   Scattered Clouds
2:54 PM 57.9 °F - 36.0 °F 44% 29.98 in 10.0 mi WSW 9.2 mph - N/A   Mostly Cloudy
3:54 PM 59.0 °F - 35.1 °F 41% 29.96 in 10.0 mi Variable 5.8 mph - N/A   Partly Cloudy
4:54 PM 60.1 °F - 35.1 °F 39% 29.97 in 10.0 mi WSW 6.9 mph - N/A   Mostly Cloudy
5:54 PM 55.9 °F - 34.0 °F 44% 29.97 in 10.0 mi South 3.5 mph - N/A   Scattered Clouds
6:54 PM 53.1 °F - 34.0 °F 48% 29.99 in 10.0 mi WSW 3.5 mph - N/A   Partly Cloudy
7:54 PM 50.0 °F - 35.1 °F 57% 30.01 in 10.0 mi Calm Calm - N/A   Clear
8:54 PM 46.0 °F - 37.9 °F 73% 30.03 in 10.0 mi Calm Calm - N/A   Clear
9:54 PM 45.0 °F - 37.9 °F 76% 30.05 in 10.0 mi Calm Calm - N/A   Clear
10:54 PM 42.1 °F - 37.9 °F 85% 30.06 in 10.0 mi Calm Calm - N/A   Clear
11:54 PM 39.9 °F - 37.0 °F 89% 30.06 in 10.0 mi Calm Calm - N/A   Clear